Regional Weather Roundup
Issued by NWS Sioux Falls, SD

Home | Current Version | Previous Version | Graphics & Text | Print | Product List | Glossary Off
Versions: 1 2 3 4 5 6 7 8 9 10 11 12 13 14 15 16 17 18 19 20 21 22 23 24 25 26 27 28 29 30 31 32 33 34 35 36 37 38 39 40 41 42 43 44 45 46 47 48 49 50

000
ASUS43 KFSD 032002
RWRFSD

WEATHER ROUNDUP FOR SE SOUTH DAKOTA/SW MINNESOTA/NW IOWA
NATIONAL WEATHER SERVICE SIOUX FALLS SD
300 PM CDT FRI JUL 03 2015

NOTE: "FAIR" INDICATES FEW OR NO CLOUDS BELOW 12,000 FEET WITH NO
SIGNIFICANT WEATHER AND OR OBSTRUCTIONS TO VISIBILITY.


SDZ038>040-050-052>070-032100-
SOUTHEAST SOUTH DAKOTA

CITY           SKY/WX    TMP DP  RH WIND       PRES   REMARKS
BROOKINGS      MOSUNNY   77  64  65 W6        29.99F
CHAMBERLAIN    MOSUNNY   80  62  54 CALM      29.98F
HURON          SUNNY     80  66  62 CALM      29.95F
MADISON        FAIR      75  66  73 W5        30.00F
MITCHELL       MOSUNNY   80  67  64 CALM      29.98F
SIOUX FALLS    CLOUDY    76  63  64 NW7       29.99F
WINNER         FAIR      83  53  35 VRB5      29.99F
YANKTON        PTSUNNY   75  61  60 W5        29.98S
$$

MNZ071-072-080-081-089-090-097-098-032100-
SOUTHWEST MINNESOTA

CITY           SKY/WX    TMP DP  RH WIND       PRES   REMARKS
FAIRMONT       SUNNY     75  32  20 CALM      29.97F
JACKSON        SUNNY     77  55  47 CALM      29.99F
LUVERNE        SUNNY     79  59  50 SW8       30.00F
MARSHALL       MOSUNNY   79  61  53 NW3       29.95S
MONTEVIDEO     MOSUNNY   82  64  54 NW6       29.95F
PIPESTONE      SUNNY     79  63  57 W7        29.99F
REDWOOD FALLS  SUNNY     79  54  41 VRB7      29.95F
TRACY          SUNNY     79  60  52 W5        29.97F
WINDOM         SUNNY     77  54  44 W5        29.98S
WORTHINGTON    SUNNY     75  55  50 W7        30.00S
$$

IAZ001>003-012>014-020>022-031-032-NEZ013-014-SDZ071-032100-
NORTHWEST IOWA

CITY           SKY/WX    TMP DP  RH WIND       PRES   REMARKS
DENISON        SUNNY     73  54  49 VRB3      29.98F
ESTHERVILLE    SUNNY     76  56  49 VRB5      29.98F
SIOUX CITY     SUNNY     77  56  48 CALM      29.99F
SPENCER        SUNNY     77  53  43 VRB5      29.99F
$$

ABBREVIATIONS USED IN REMARKS
   TC - TEMPERATURE IN CELSIUS
  WCI - WIND CHILL INDEX
   HX - HEAT INDEX
  VSB - VISIBILITY



USA.gov is the U.S. government's official web portal to all federal, state and local government web resources and services.